EW0624 Weather Reports


time (UTC)temp
C
wind
direction
speed
KPH
gust
KPH
rain 1hr
cm
rain 24hr
cm
rain mn
cm
humidity
%
barometer
mb
20260509124903 20 136 0.0 3.2 0.00 0.15 0.03 64 1004.7
20260509123903 19 103 3.2 11.3 0.00 0.15 0.03 64 1004.9
20260509122903 19 46 9.7 19.3 0.00 0.15 0.03 64 1005.0
20260509122403 19 54 6.4 14.5 0.00 0.15 0.03 64 1005.1
20260509121903 20 184 3.2 12.9 0.00 0.15 0.03 63 1005.1
20260509121403 20 78 3.2 12.9 0.00 0.15 0.03 63 1005.1
20260509120903 19 111 3.2 12.9 0.00 0.15 0.03 64 1005.1
20260509120403 19 138 9.7 19.3 0.00 0.15 0.03 64 1005.2
20260509115903 19 154 1.6 14.5 0.00 0.15 0.03 65 1005.2
20260509114903 18 191 4.8 16.1 0.00 0.15 0.03 66 1005.4
20260509114403 18 157 11.3 19.3 0.00 0.15 0.03 65 1005.5
20260509113903 18 165 11.3 19.3 0.00 0.15 0.03 64 1005.6
20260509113403 18 167 4.8 22.5 0.00 0.15 0.03 65 1005.7
20260509112903 18 166 1.6 24.1 0.00 0.15 0.03 66 1005.7
20260509112403 18 201 4.8 19.3 0.00 0.15 0.03 67 1005.8
20260509111903 18 143 11.3 22.5 0.00 0.15 0.03 67 1005.9
20260509111403 17 224 8.0 12.9 0.00 0.15 0.03 70 1005.9
20260509110903 17 160 4.8 14.5 0.00 0.15 0.03 71 1005.9
20260509110404 17 127 0.0 4.8 0.00 0.15 0.03 73 1006.1
20260509105403 17 215 3.2 9.7 0.00 0.15 0.03 74 1006.2
20260509104903 17 175 1.6 11.3 0.00 0.15 0.03 74 1006.4
20260509104403 17 192 4.8 9.7 0.00 0.15 0.03 75 1006.5
20260509103903 17 57 0.0 1.6 0.00 0.18 0.03 78 1006.4
20260509103403 17 57 0.0 3.2 0.00 0.18 0.03 80 1006.5
20260509102903 16 55 1.6 4.8 0.00 0.23 0.03 80 1006.5
20260509102403 16 64 1.6 4.8 0.00 0.23 0.03 81 1006.6
20260509101903 16 63 0.0 4.8 0.00 0.30 0.03 82 1006.5
20260509101403 16 13 3.2 8.0 0.00 0.33 0.03 82 1006.5
20260509095903 16 282 0.0 0.0 0.00 0.36 0.03 84 1006.5
20260509095404 15 282 0.0 1.6 0.00 0.36 0.03 84 1006.5
20260509094903 15 282 1.6 4.8 0.00 0.38 0.03 84 1006.4
20260509094403 15 282 0.0 3.2 0.00 0.38 0.03 84 1006.4
20260509093903 15 282 1.6 4.8 0.00 0.38 0.03 84 1006.4
20260509093403 16 279 1.6 4.8 0.00 0.38 0.03 84 1006.4
20260509091903 16 310 0.0 1.6 0.00 0.38 0.03 86 1006.4
20260509091403 15 309 0.0 1.6 0.00 0.38 0.03 89 1006.4
20260509090904 15 307 0.0 1.6 0.00 0.38 0.03 91 1006.5
20260509084903 13 292 0.0 11.3 0.00 0.38 0.03 95 1006.5
20260509084404 12 280 1.6 8.0 0.00 0.41 0.03 96 1006.6
20260509083904 12 290 0.0 0.0 0.00 0.41 0.03 97 1006.6
20260509083403 12 290 0.0 0.0 0.00 0.43 0.03 97 1006.4
20260509082903 12 290 1.6 4.8 0.00 0.43 0.03 97 1006.6
20260509082403 12 15 0.0 1.6 0.00 0.43 0.03 98 1006.6
20260509081903 12 24 1.6 4.8 0.00 0.43 0.03 98 1006.5
20260509080903 11 303 0.0 0.0 0.00 0.43 0.03 98 1006.7
20260509080403 11 303 1.6 4.8 0.00 0.43 0.03 99 1006.6
20260509075903 11 336 0.0 4.8 0.00 0.43 0.03 99 1006.6
20260509075403 11 336 0.0 3.2 0.00 0.43 0.03 99 1006.6
20260509074903 11 288 1.6 4.8 0.00 0.43 0.03 99 1006.5
20260509074406 11 274 0.0 0.0 0.00 0.43 0.03 99 1006.5
20260509073905 10 274 0.0 0.0 0.00 0.43 0.03 99 1006.5
20260509073403 10 275 0.0 0.0 0.00 0.43 0.03 99 1006.6
20260509072904 10 240 0.0 1.6 0.00 0.43 0.03 99 1006.6
20260509072403 10 240 1.6 4.8 0.00 0.43 0.03 99 1006.6
20260509070903 10 217 3.2 8.0 0.00 0.43 0.03 99 1006.8
20260509070403 10 284 4.8 12.9 0.00 0.43 0.03 99 1006.8
20260509065903 10 188 1.6 4.8 0.00 0.43 0.03 99 1006.8
20260509065404 10 179 1.6 4.8 0.00 0.43 0.03 99 1006.8
20260509064903 10 180 0.0 4.8 0.00 0.43 0.03 99 1006.8
20260509064404 10 178 4.8 8.0 0.00 0.43 0.03 99 1006.7
20260509063903 10 171 0.0 0.0 0.00 0.43 0.03 99 1006.7
20260509063403 10 172 0.0 0.0 0.00 0.43 0.03 99 1006.7
20260509062903 9 172 0.0 3.2 0.00 0.43 0.03 99 1006.6
20260509062403 9 175 6.4 11.3 0.00 0.43 0.03 99 1006.8
20260509061903 9 334 0.0 0.0 0.00 0.43 0.03 99 1006.6
20260509060903 9 266 0.0 0.0 0.00 0.43 0.03 99 1006.7
20260509055903 9 284 0.0 3.2 0.00 0.43 0.03 99 1006.8
20260509054903 9 206 3.2 4.8 0.00 0.43 0.03 99 1006.5
20260509053903 10 232 0.0 0.0 0.00 0.43 0.03 99 1006.4
20260509053403 10 232 0.0 0.0 0.00 0.43 0.03 99 1006.5
20260509052903 10 232 0.0 0.0 0.00 0.43 0.03 99 1006.5
20260509052403 10 232 0.0 0.0 0.03 0.43 0.03 99 1006.5
20260509051906 10 232 0.0 0.0 0.03 0.43 0.03 99 1006.5
20260509051406 10 232 1.6 4.8 0.03 0.43 0.03 99 1006.5
20260509050924 10 171 0.0 0.0 0.03 0.43 0.03 99 1006.5
20260509050404 10 172 1.6 4.8 0.03 0.43 0.03 99 1006.5
20260509045903 10 171 0.0 9.7 0.03 0.43 0.03 99 1006.4
20260509045403 10 169 0.0 0.0 0.03 0.43 0.03 99 1006.2
20260509044903 10 182 0.0 0.0 0.03 0.43 0.03 99 1006.2
20260509044403 10 182 0.0 3.2 0.03 0.43 0.03 99 1006.3
20260509043903 10 184 0.0 0.0 0.03 0.43 0.03 99 1006.4
20260509043403 10 184 0.0 0.0 0.03 0.43 0.03 99 1006.4
20260509042903 10 184 0.0 0.0 0.03 0.43 0.03 99 1006.4
20260509042403 10 184 0.0 0.0 0.00 0.41 0.00 99 1006.3
20260509041903 10 184 0.0 0.0 0.00 0.41 0.00 99 1006.4
20260509041403 10 184 0.0 0.0 0.00 0.41 0.00 99 1006.4
20260509040903 10 184 0.0 0.0 0.00 0.41 0.00 99 1006.6
20260509040403 9 182 0.0 8.0 0.00 0.41 0.00 100 1006.7
20260509035903 9 182 0.0 4.8 0.00 0.41 0.00 100 1006.7
20260509035403 9 182 0.0 0.0 0.00 0.41 0.00 100 1006.6
20260509034903 9 182 0.0 0.0 0.00 0.41 0.00 100 1006.6
20260509034403 9 183 0.0 0.0 0.00 0.41 0.00 100 1006.7
20260509033903 9 183 0.0 0.0 0.00 0.41 0.00 99 1006.8
20260509032403 9 190 0.0 0.0 0.00 0.41 0.00 99 1007.1
20260509030903 9 189 0.0 0.0 0.00 0.41 0.00 99 1007.3
20260509030403 9 189 0.0 0.0 0.00 0.41 0.00 99 1007.2
20260509025903 9 189 0.0 0.0 0.00 0.41 0.00 99 1007.3
20260509025403 10 190 3.2 8.0 0.00 0.41 0.00 99 1007.4
20260509024403 10 184 0.0 0.0 0.00 0.41 0.00 99 1007.3
20260509023903 10 186 0.0 4.8 0.00 0.41 0.00 99 1007.3
20260509023403 10 185 0.0 4.8 0.00 0.41 0.00 99 1007.2
20260509022903 10 186 0.0 0.0 0.00 0.41 0.00 99 1007.4
20260509022403 10 186 1.6 4.8 0.00 0.41 0.00 99 1007.4
20260509021903 10 179 8.0 11.3 0.00 0.41 0.00 99 1007.5
20260509020403 10 178 0.0 0.0 0.00 0.41 0.00 99 1007.6
20260509015903 10 178 0.0 0.0 0.00 0.41 0.00 99 1007.8
20260509015403 10 178 0.0 0.0 0.00 0.41 0.00 99 1007.9
20260509014903 10 178 0.0 0.0 0.00 0.41 0.00 99 1008.0
20260509014403 10 178 0.0 0.0 0.00 0.41 0.00 99 1008.0
20260509013903 10 178 0.0 0.0 0.00 0.41 0.00 99 1008.1
20260509013404 10 177 0.0 4.8 0.00 0.41 0.00 99 1008.0
20260509011903 10 178 0.0 1.6 0.00 0.41 0.00 98 1008.1
20260509011403 10 178 3.2 9.7 0.00 0.41 0.00 99 1008.2
20260509010903 10 179 3.2 11.3 0.00 0.41 0.00 98 1008.2
20260509010403 10 174 1.6 4.8 0.00 0.41 0.00 98 1008.2
20260509005904 10 174 3.2 8.0 0.00 0.41 0.00 98 1008.3
20260509005403 10 175 3.2 4.8 0.00 0.41 0.00 98 1008.3
20260509004903 10 175 3.2 8.0 0.00 0.41 0.00 98 1008.3
20260509004403 11 86 1.6 4.8 0.00 0.41 0.00 98 1008.4
20260509003903 11 76 0.0 1.6 0.00 0.41 0.00 98 1008.4
20260509003403 11 74 0.0 0.0 0.00 0.41 0.00 98 1008.5
20260509002903 11 74 0.0 0.0 0.00 0.41 0.00 98 1008.5
20260509001403 11 74 0.0 0.0 0.00 0.41 0.00 98 1008.6
20260509000903 11 74 0.0 0.0 0.00 0.41 0.00 98 1008.7
20260508235903 11 74 0.0 0.0 0.00 0.41 0.00 98 1008.9
20260508235403 11 74 0.0 0.0 0.00 0.41 0.00 98 1008.9
20260508234903 11 74 0.0 0.0 0.00 0.41 0.00 98 1008.9
20260508234403 11 74 0.0 0.0 0.00 0.41 0.00 98 1009.0
20260508233903 11 74 0.0 0.0 0.00 0.41 0.00 98 1009.0
20260508233403 11 74 0.0 0.0 0.00 0.41 0.00 97 1009.0
20260508232403 11 74 0.0 0.0 0.00 0.41 0.00 98 1009.1
20260508231903 11 74 0.0 0.0 0.00 0.41 0.00 98 1009.1
20260508231403 11 74 0.0 0.0 0.00 0.41 0.00 98 1009.1
20260508230403 11 74 0.0 0.0 0.00 0.41 0.00 98 1009.1
20260508225903 11 74 0.0 0.0 0.00 0.41 0.00 98 1009.1
20260508225403 11 74 0.0 0.0 0.00 0.41 0.00 98 1009.2
20260508224903 11 74 0.0 3.2 0.00 0.41 0.00 98 1009.3
20260508224403 11 75 0.0 1.6 0.00 0.41 0.00 98 1009.2
20260508223903 11 75 0.0 1.6 0.00 0.41 0.00 98 1009.3
20260508223403 11 75 0.0 4.8 0.00 0.41 0.00 98 1009.3
20260508222903 11 74 0.0 0.0 0.00 0.41 0.00 97 1009.3
20260508222403 11 73 0.0 0.0 0.00 0.41 0.00 97 1009.3
20260508221403 11 74 1.6 4.8 0.00 0.41 0.00 97 1009.4
20260508220903 11 91 1.6 4.8 0.00 0.41 0.00 97 1009.5
20260508220403 11 93 1.6 4.8 0.00 0.41 0.00 97 1009.7
20260508215903 11 74 0.0 3.2 0.00 0.41 0.41 97 1009.6
20260508215403 11 74 0.0 0.0 0.00 0.41 0.41 97 1009.6
20260508214903 11 74 0.0 0.0 0.00 0.41 0.41 97 1009.7
20260508213903 11 74 0.0 0.0 0.00 0.41 0.41 97 1009.9
20260508213403 11 74 0.0 0.0 0.00 0.41 0.41 97 1009.9
20260508212904 11 74 1.6 3.2 0.00 0.41 0.41 97 1009.9
20260508212403 11 71 0.0 0.0 0.00 0.41 0.41 97 1009.9
20260508211903 11 71 0.0 3.2 0.00 0.41 0.41 97 1009.8
20260508211403 12 72 1.6 3.2 0.00 0.41 0.41 97 1009.9
20260508210904 12 73 0.0 3.2 0.00 0.41 0.41 97 1010.0
20260508210404 12 73 0.0 1.6 0.00 0.41 0.41 97 1010.0
20260508205903 12 72 0.0 0.0 0.00 0.41 0.41 97 1009.9
20260508205403 12 72 0.0 4.8 0.00 0.41 0.41 97 1009.9
20260508204903 12 73 0.0 4.8 0.00 0.41 0.41 97 1009.9
20260508204403 12 75 0.0 4.8 0.00 0.41 0.41 97 1009.9
20260508203903 12 71 1.6 8.0 0.00 0.41 0.41 97 1009.9
20260508202903 12 81 0.0 4.8 0.00 0.41 0.41 97 1009.9
20260508202403 12 81 0.0 0.0 0.00 0.41 0.41 97 1009.9
20260508201403 12 80 0.0 0.0 0.00 0.41 0.41 97 1009.8
20260508200903 12 80 0.0 0.0 0.00 0.41 0.41 97 1009.8
20260508200403 12 81 0.0 4.8 0.00 0.41 0.41 96 1009.6
20260508195903 12 356 0.0 3.2 0.00 0.41 0.41 96 1009.6
20260508195403 12 355 4.8 16.1 0.00 0.41 0.41 96 1009.5
20260508194903 12 326 9.7 14.5 0.00 0.41 0.41 96 1009.4
20260508194403 12 287 1.6 4.8 0.00 0.41 0.41 95 1009.4
20260508193903 12 288 0.0 4.8 0.00 0.41 0.41 95 1009.4
20260508193403 13 288 0.0 0.0 0.00 0.41 0.41 94 1009.4
20260508192903 13 288 0.0 0.0 0.00 0.41 0.41 93 1009.2
20260508192403 13 289 4.8 12.9 0.00 0.41 0.41 92 1009.3
20260508191903 13 312 6.4 9.7 0.00 0.41 0.41 90 1009.2
20260508191403 13 34 0.0 0.0 0.00 0.41 0.41 89 1009.2
20260508190903 13 34 0.0 0.0 0.00 0.41 0.41 89 1009.1
20260508190403 13 34 0.0 1.6 0.00 0.41 0.41 89 1009.1
20260508185903 13 34 3.2 4.8 0.00 0.41 0.41 89 1008.9
20260508184903 13 30 3.2 8.0 0.00 0.41 0.41 89 1008.9
20260508184403 13 22 0.0 4.8 0.00 0.41 0.41 90 1008.9
20260508183903 13 17 3.2 11.3 0.00 0.41 0.41 90 1008.8
20260508183403 12 40 3.2 4.8 0.00 0.41 0.41 92 1008.8
20260508182903 12 44 3.2 4.8 0.00 0.41 0.41 92 1008.7
20260508182403 12 45 6.4 9.7 0.00 0.41 0.41 93 1008.7
20260508181904 12 50 8.0 12.9 0.00 0.41 0.41 93 1008.7
20260508181403 12 15 8.0 14.5 0.00 0.41 0.41 94 1008.5
20260508180903 12 7 6.4 16.1 0.00 0.41 0.41 94 1008.6
20260508180403 13 31 8.0 19.3 0.00 0.41 0.41 94 1008.5
20260508175904 13 42 11.3 19.3 0.00 0.41 0.41 94 1008.5
20260508175403 13 38 4.8 14.5 0.00 0.41 0.41 94 1008.4
20260508174403 13 64 3.2 9.7 0.00 0.41 0.41 94 1008.3
20260508173903 13 59 3.2 4.8 0.00 0.41 0.41 94 1008.3
20260508173403 13 75 3.2 8.0 0.00 0.41 0.41 94 1008.3
20260508172903 13 42 3.2 8.0 0.00 0.41 0.41 94 1008.3
20260508172403 13 26 4.8 9.7 0.00 0.41 0.41 94 1008.3
20260508171403 13 40 4.8 4.8 0.00 0.41 0.41 95 1008.3
20260508170903 13 115 0.0 1.6 0.00 0.41 0.41 95 1008.4
20260508170403 12 115 1.6 3.2 0.00 0.41 0.41 95 1008.3
20260508165903 13 113 1.6 4.8 0.00 0.41 0.41 95 1008.3
20260508165403 13 50 0.0 3.2 0.03 0.41 0.41 96 1008.3
20260508164903 13 51 1.6 4.8 0.05 0.41 0.41 95 1008.2
20260508164403 13 36 4.8 8.0 0.05 0.41 0.41 95 1008.2
20260508163903 13 44 1.6 14.5 0.08 0.41 0.41 95 1008.2
20260508162903 14 82 0.0 0.0 0.10 0.41 0.41 95 1008.1
20260508162403 13 79 1.6 4.8 0.10 0.41 0.41 95 1008.0
20260508161903 13 193 0.0 0.0 0.13 0.41 0.41 95 1008.0
20260508161403 13 193 0.0 0.0 0.13 0.41 0.41 95 1008.0
20260508160903 13 236 0.0 0.0 0.13 0.41 0.41 95 1007.9
20260508160403 13 236 0.0 0.0 0.13 0.41 0.41 94 1007.9
20260508155904 13 236 0.0 0.0 0.13 0.41 0.41 94 1007.8
20260508154903 13 234 0.0 0.0 0.08 0.36 0.36 94 1007.8
20260508154403 13 234 0.0 4.8 0.05 0.33 0.33 94 1007.8
20260508153903 13 234 3.2 11.3 0.05 0.33 0.33 94 1007.9
20260508152403 14 220 4.8 12.9 0.03 0.30 0.30 92 1007.9
20260508151403 14 355 0.0 3.2 0.00 0.28 0.28 92 1007.6
20260508150903 15 73 0.0 0.0 0.00 0.28 0.28 92 1007.7
20260508150403 14 73 0.0 4.8 0.00 0.28 0.28 92 1007.7
20260508145903 14 59 0.0 4.8 0.00 0.28 0.28 91 1007.7
20260508145403 14 59 3.2 9.7 0.00 0.28 0.28 91 1007.7
20260508144904 14 55 3.2 9.7 0.00 0.30 0.28 91 1007.6
20260508144403 14 31 3.2 4.8 0.00 0.33 0.28 91 1007.5
20260508143904 14 69 0.0 4.8 0.00 0.33 0.28 92 1007.5
20260508143403 14 79 0.0 4.8 0.00 0.36 0.28 92 1007.6
20260508142903 14 51 0.0 3.2 0.00 0.36 0.28 92 1007.5
20260508142403 13 52 3.2 9.7 0.00 0.36 0.28 93 1007.6
20260508141903 13 41 3.2 9.7 0.00 0.36 0.28 94 1007.6
20260508141403 13 129 1.6 8.0 0.00 0.36 0.28 94 1007.7
20260508140903 13 63 3.2 8.0 0.00 0.36 0.28 95 1007.8
20260508140403 13 117 4.8 9.7 0.00 0.36 0.28 96 1007.9
20260508135903 13 107 3.2 8.0 0.00 0.36 0.28 96 1007.9
20260508135403 13 83 1.6 4.8 0.00 0.36 0.28 97 1007.9
20260508134904 13 78 6.4 11.3 0.00 0.36 0.28 98 1007.9
20260508134403 13 100 1.6 4.8 0.00 0.36 0.28 98 1008.0
20260508133904 13 142 0.0 1.6 0.00 0.36 0.28 99 1008.0
20260508133403 13 142 0.0 1.6 0.00 0.36 0.28 99 1008.1
20260508132903 13 132 0.0 0.0 0.00 0.36 0.28 99 1008.2
20260508132403 13 132 0.0 3.2 0.00 0.36 0.28 99 1008.2
20260508131903 13 221 0.0 0.0 0.00 0.36 0.28 99 1008.2
20260508130904 12 222 1.6 4.8 0.03 0.36 0.28 99 1008.4
20260508125903 12 252 8.0 16.1 0.03 0.36 0.28 99 1008.5
20260508125403 12 270 4.8 14.5 0.03 0.36 0.28 99 1008.4